GFSNW_prec_cloud_132.txt.gz
Cloud_Cover
100 100 100 100 100 100 100 100 100 100 100 100 68 100 100 100 99 100 100 100 100 89 100 100 100 100 100 100 100 100 100 100 100 100 100 63 99 89 99 95 100 100 100 100
100 100 100 100 100 100 100 100 100 100 100 100 93 95 87 100 100 54 51 100 100 99 100 100 100 100 85 100 100 100 100 100 100 100 52 80 100 99 98 100 67 100 100 100
100 100 100 100 100 100 100 100 100 100 100 100 95 100 100 83 80 94 98 100 90 100 100 100 100 100 100 100 100 100 100 100 100 54 17 33 96 100 86 98 99 100 99 100
100 100 100 100 100 100 100 100 100 100 100 100 100 100 100 100 100 100 100 100 100 100 100 100 100 100 100 100 100 100 100 100 16 99 98 90 100 100 62 88 100 100 99 100
100 100 100 100 100 100 100 100 100 100 100 100 100 100 100 100 100 100 100 100 100 100 100 100 100 100 100 100 100 100 100 59 5 100 60 100 100 100 82 89 100 100 100 100
100 100 100 100 100 100 100 100 100 100 100 100 100 100 100 100 100 100 100 100 100 100 100 100 100 100 100 100 100 100 100 80 98 97 87 100 100 96 100 96 92 100 100 100
100 100 100 100 100 100 100 100 100 100 100 100 100 100 100 100 100 100 100 100 100 100 100 100 100 100 100 100 100 100 53 99 100 53 80 100 94 100 99 81 100 100 100 100
100 100 100 100 100 100 100 100 100 98 100 100 100 100 100 100 100 100 100 100 100 100 100 100 100 100 100 100 100 12 5 99 100 99 29 90 100 84 100 100 100 100 100 100
100 100 100 100 100 100 100 99 78 98 98 96 100 100 100 100 100 100 100 100 100 100 100 100 100 100 100 97 97 12 6 33 96 100 47 100 98 93 100 100 100 100 100 100
100 100 100 100 100 100 100 99 97 100 100 100 98 100 100 100 100 100 100 100 100 100 100 100 100 100 80 26 50 92 98 100 100 85 94 69 66 9 94 100 100 100 100 100
100 100 100 100 100 100 100 100 95 100 100 85 100 100 100 100 100 100 100 100 100 100 100 100 100 86 48 29 73 88 63 96 96 86 87 99 6 31 66 93 100 100 100 100
100 100 100 100 100 100 100 100 99 100 100 100 91 100 100 100 100 100 100 100 100 100 100 100 90 16 27 23 75 66 91 93 95 83 95 84 17 92 97 100 100 100 99 100
100 100 100 100 100 100 100 100 100 100 99 100 96 99 98 100 100 100 100 100 100 100 100 100 34 58 100 72 97 97 48 78 90 94 96 66 65 43 100 100 100 100 96 83
100 100 100 100 100 100 100 100 100 100 100 100 99 97 100 100 100 100 100 100 100 100 95 27 74 100 53 20 68 65 84 72 90 99 99 87 82 89 98 100 100 100 100 90
100 100 100 100 100 100 100 100 100 100 99 100 100 98 100 100 100 100 100 100 100 100 72 90 100 100 81 5 6 34 24 83 99 100 65 97 99 96 62 93 93 99 100 99
100 100 100 100 100 100 100 100 100 100 100 100 88 92 100 100 100 100 100 100 100 100 100 100 96 13 5 5 5 42 72 95 84 49 81 96 100 100 76 100 99 93 88 95
100 100 100 100 100 100 100 100 100 100 100 100 100 99 100 100 100 100 100 100 100 100 100 99 46 14 10 5 34 73 82 100 99 72 78 96 99 97 100 100 96 84 95 100
100 100 100 100 100 100 100 100 100 100 100 100 100 100 100 100 100 100 100 98 100 100 100 64 79 44 16 33 48 99 47 71 93 100 86 72 98 100 100 100 94 100 100 98
100 100 100 100 100 100 100 100 100 100 100 100 100 100 100 100 100 100 100 99 100 97 100 95 65 87 53 16 12 100 44 12 75 60 50 64 69 86 89 93 96 97 99 100
100 100 100 100 100 100 100 100 100 100 100 100 100 100 100 100 96 100 100 97 98 99 68 59 100 91 20 10 66 68 76 81 85 7 61 86 89 81 65 44 5 9 67 98
100 100 100 100 100 100 100 100 100 100 100 100 100 100 99 90 99 92 69 100 97 98 98 100 100 49 33 57 63 82 97 84 83 68 76 93 80 68 54 7 5 5 26 82
100 100 100 100 100 100 95 67 81 100 100 100 100 98 98 99 52 75 62 96 89 100 63 93 79 14 10 73 77 100 100 86 59 67 36 50 67 21 5 5 5 15 53 60
100 100 100 100 79 79 14 55 98 100 100 100 100 100 100 100 95 83 96 100 98 63 100 82 9 6 42 84 81 69 95 58 5 19 38 49 36 5 5 24 62 76 96 94
100 100 100 100 98 40 97 100 100 100 100 100 100 100 100 100 75 74 99 75 66 95 94 60 19 5 58 78 58 5 5 14 75 91 96 87 54 83 69 55 63 43 66 68
100 100 100 100 100 100 100 100 100 100 100 100 100 100 100 61 77 62 54 74 86 51 100 22 5 14 60 71 7 5 29 78 92 94 71 72 70 58 90 91 94 52 38 51
100 100 100 100 100 100 100 100 100 100 100 100 92 99 100 99 100 100 99 22 13 100 53 5 6 70 80 83 39 15 12 6 62 67 14 51 81 61 63 98 98 74 49 55
100 100 100 100 100 100 100 100 100 100 100 100 92 98 100 100 100 88 35 19 99 70 5 5 5 15 79 82 76 73 58 64 66 63 70 70 84 96 68 99 100 86 44 39

GFSNW_prec_cloud_138.txt.gz
Cloud_Cover
100 42 97 87 100 100 100 100 100 100 100 100 100 58 93 36 100 56 72 100 100 100 100 100 100 100 100 100 100 100 100 100 69 10 20 34 94 90 60 54 63 98 100 87
100 81 81 100 100 100 100 100 100 100 100 100 100 49 78 61 91 8 98 100 100 100 100 100 100 100 100 100 100 99 100 100 100 100 58 99 100 100 100 100 100 90 100 100
100 100 100 100 100 100 100 100 100 100 100 100 71 97 75 44 69 91 87 100 100 100 100 100 100 100 100 100 79 98 100 90 100 100 100 100 100 100 100 98 98 92 91 97
100 100 100 100 100 100 100 100 96 100 100 100 91 49 90 98 99 100 90 100 100 100 100 100 100 100 100 100 100 100 96 57 85 100 100 100 100 100 86 38 65 100 78 57
100 100 100 100 100 100 100 100 100 100 100 100 100 100 78 100 96 74 51 100 100 100 100 100 100 100 100 100 100 100 100 98 100 100 100 100 100 100 100 100 62 94 36 97
100 100 100 100 100 100 100 100 100 100 100 100 100 100 100 100 100 100 100 100 100 99 100 100 100 100 100 100 100 100 100 100 100 100 100 100 100 100 100 39 5 16 79 46
100 100 100 100 100 100 100 100 100 100 100 100 100 100 100 100 100 100 100 100 100 100 100 100 100 100 100 100 100 100 100 100 100 100 100 100 100 100 58 22 19 64 50 5
100 100 100 100 100 100 100 100 100 100 100 100 100 100 100 100 100 100 100 100 100 100 100 100 100 100 100 100 100 100 100 100 100 100 100 100 98 77 12 5 81 100 100 97
100 100 100 100 100 100 100 100 100 100 100 100 100 100 100 100 100 100 100 100 100 100 100 100 100 100 100 100 100 100 100 100 100 100 69 100 99 65 5 46 97 99 91 100
100 100 100 100 100 100 100 100 100 100 100 100 100 100 100 100 100 100 100 100 100 100 100 100 100 100 100 100 100 100 100 100 100 100 100 85 83 60 5 75 75 100 100 100
100 100 100 100 100 100 100 100 100 100 100 100 100 100 100 100 100 100 100 100 100 100 100 100 100 100 99 100 100 100 100 100 100 52 27 86 23 52 83 53 97 100 100 100
100 100 100 100 100 100 100 100 100 100 100 99 100 100 100 100 100 100 100 100 100 100 100 100 100 100 100 100 100 100 100 100 100 22 63 77 36 7 34 95 100 98 99 100
100 100 100 100 100 100 100 100 100 100 100 100 100 100 100 100 100 100 99 100 100 100 100 100 100 100 100 100 100 100 100 100 87 7 90 89 78 67 69 85 77 88 91 95
100 100 100 100 100 100 100 100 100 100 100 100 100 100 100 100 98 99 100 100 100 100 100 100 100 100 100 100 100 100 100 47 45 96 97 76 100 89 90 74 56 69 82 76
100 100 100 100 100 100 100 100 100 100 100 95 100 100 100 99 100 99 100 100 100 100 100 99 47 100 100 100 100 100 55 28 17 32 18 60 76 100 97 100 92 83 85 98
100 100 100 100 100 100 100 100 100 100 100 100 100 67 99 100 90 83 92 100 100 100 100 100 100 100 100 100 100 93 74 39 5 25 55 80 54 100 100 100 85 88 91 86
100 100 100 100 100 100 100 100 100 100 100 100 100 96 98 98 94 100 100 100 100 100 99 100 100 100 100 96 100 100 80 5 17 72 27 96 100 90 100 100 55 10 5 13
100 100 100 100 100 100 100 100 100 100 100 100 99 100 100 96 100 100 82 60 96 100 100 100 100 100 100 100 99 100 22 99 100 100 79 38 100 81 80 77 67 84 93 58
100 100 100 100 100 100 100 100 100 100 100 100 89 100 100 98 100 95 94 80 100 97 100 100 100 100 100 64 100 60 64 99 100 100 100 96 73 75 74 67 72 90 60 65
100 100 100 100 100 100 100 100 100 100 100 94 98 78 100 91 66 97 70 90 99 100 100 100 100 100 100 100 97 60 5 6 43 91 99 67 78 71 67 85 63 64 5 5
100 100 100 100 100 100 100 100 98 87 61 54 100 100 100 86 43 51 68 90 100 100 100 100 100 100 100 100 71 41 34 15 81 58 38 30 24 60 58 32 5 5 5 5
100 100 100 100 100 100 100 100 100 100 73 100 85 100 100 100 99 100 89 100 100 100 100 100 100 100 100 59 68 6 5 21 73 82 18 27 13 5 5 5 5 5 5 5
100 100 100 100 100 100 100 100 100 100 100 100 100 100 100 100 96 84 79 100 100 100 100 100 100 100 55 63 19 54 57 76 82 58 58 5 5 5 5 5 5 5 5 5
100 100 100 100 100 53 100 100 100 100 100 100 100 100 100 100 98 74 100 100 100 100 100 100 100 65 43 51 12 69 97 100 93 30 5 5 5 5 5 5 5 5 6 34
100 100 100 100 100 100 100 100 100 100 100 100 100 100 100 100 100 100 100 100 100 100 100 100 64 53 73 20 5 49 90 44 5 5 5 5 5 5 33 8 5 5 8 5
100 100 100 100 100 100 100 100 100 100 100 100 100 100 100 100 100 100 100 100 100 100 100 100 100 68 54 9 10 8 5 5 5 44 64 17 5 5 11 6 18 5 5 5
100 100 100 100 100 100 100 98 100 99 100 100 100 100 100 100 100 100 100 100 100 100 100 100 48 73 33 14 40 7 5 5 75 100 91 71 5 5 73 73 97 9 18 5

GFSNW_prec_cloud_141.txt.gz
Cloud_Cover
100 100 32 100 99 97 100 100 100 100 100 100 100 100 4 7 6 25 6 11 100 7 98 100 100 100 100 100 100 100 100 100 100 100 100 100 100 100 99 48 94 100 67 97
100 27 91 100 100 100 100 100 100 100 100 100 100 96 66 65 4 45 5 51 6 84 100 100 97 100 100 100 100 100 100 100 100 100 100 99 100 91 94 91 100 100 82 76
100 91 100 100 100 100 100 100 100 100 100 100 75 89 100 36 16 5 6 8 79 99 100 35 100 100 100 100 100 100 100 100 100 100 29 33 100 94 99 100 100 100 100 100
100 100 100 100 100 100 100 100 100 100 100 100 100 15 5 86 40 64 7 94 78 39 31 99 100 100 96 100 100 100 100 100 100 99 98 78 83 100 100 100 100 100 100 60
84 100 100 100 100 100 100 100 100 100 90 100 100 99 87 11 5 4 5 5 6 100 100 100 100 100 100 100 100 100 100 100 100 100 57 98 99 100 100 100 100 100 77 78
31 100 100 100 100 100 100 100 97 100 100 100 100 86 23 26 66 60 53 95 100 100 100 100 100 100 100 100 100 100 100 100 100 100 100 100 100 100 100 100 100 98 100 98
6 79 100 100 100 100 100 100 100 100 100 100 100 100 100 100 100 100 100 100 100 100 100 100 100 100 100 100 100 100 100 100 100 100 100 100 100 100 100 100 100 100 99 8
18 100 100 100 100 100 100 100 100 100 100 100 100 100 100 100 100 100 98 100 100 100 100 100 100 100 100 100 100 100 100 100 100 100 100 100 100 100 100 100 100 56 5 33
63 100 100 100 100 100 100 100 100 100 100 100 100 100 100 100 100 100 100 100 100 100 100 100 99 99 100 100 100 100 100 100 100 100 100 100 100 100 100 96 31 74 54 82
100 100 100 100 100 100 100 100 100 100 100 100 100 100 100 100 100 100 100 100 100 100 97 100 100 100 100 100 100 100 100 100 100 100 100 100 100 91 60 91 6 70 6 6
100 100 100 100 100 100 100 100 100 100 100 100 100 100 100 100 100 100 100 100 100 100 100 100 100 100 100 100 100 100 100 100 100 100 100 100 100 32 7 5 5 23 6 97
100 100 100 100 100 100 100 100 100 100 100 100 100 100 100 100 100 100 100 100 100 100 100 100 100 100 100 100 100 100 100 100 100 100 100 96 18 5 5 5 5 5 7 53
100 100 100 100 100 100 100 100 100 100 100 100 100 100 100 100 100 100 100 100 100 100 100 100 100 100 100 100 100 100 100 100 100 100 100 100 6 5 5 5 5 5 9 53
100 100 100 100 100 100 100 100 100 100 100 100 100 100 100 100 100 100 100 100 100 100 100 100 100 100 100 100 100 100 100 100 100 100 100 40 26 5 76 33 5 5 5 5
100 100 100 100 100 100 100 100 100 100 100 94 100 100 100 100 100 100 99 98 100 100 100 100 100 100 84 100 100 100 100 100 100 100 54 5 6 99 98 5 5 5 5 5
100 100 100 100 100 100 100 100 100 100 100 100 100 100 100 100 100 100 100 100 100 100 100 100 100 100 94 100 100 100 100 100 100 85 5 5 5 100 100 92 79 14 35 5
100 100 100 100 100 100 100 100 99 100 100 100 100 100 100 100 100 100 100 90 100 100 85 100 96 94 100 100 100 100 100 100 68 29 6 17 34 65 100 89 24 5 5 5
100 100 100 100 100 100 100 100 100 100 100 100 100 100 100 100 100 100 86 99 100 97 100 100 95 98 100 100 100 100 100 88 34 65 6 5 65 65 100 54 5 5 5 5
100 100 100 100 100 100 100 100 100 100 100 100 100 100 100 100 97 53 50 100 99 100 99 100 100 100 100 100 100 100 78 61 59 52 22 82 29 95 68 5 5 5 5 5
100 100 100 100 100 100 100 100 100 100 100 100 100 100 100 100 100 96 88 100 96 91 100 99 98 100 100 100 100 100 100 100 100 31 77 93 13 5 5 5 5 5 5 5
100 100 100 100 100 100 100 100 100 88 100 98 100 98 96 100 99 56 100 93 95 99 89 98 100 100 100 100 100 100 100 100 18 5 5 5 5 5 5 5 5 5 5 2
100 100 100 100 100 100 100 100 98 100 100 100 100 100 100 100 100 95 84 97 77 98 83 100 100 100 100 100 100 100 100 58 5 5 5 5 5 5 5 5 5 4 2 5
100 100 100 100 100 100 100 100 100 100 100 100 100 100 100 100 100 98 100 87 100 100 69 100 100 100 100 100 100 100 82 7 5 8 5 6 5 5 5 5 5 5 5 5
100 100 100 100 100 100 100 100 100 100 100 100 100 100 100 100 100 63 55 88 99 73 81 100 80 100 100 100 100 100 26 5 5 5 5 5 5 5 5 5 5 5 5 6
100 100 100 100 100 100 100 100 100 100 100 100 100 100 100 100 90 73 44 100 98 78 100 100 100 100 100 100 100 60 20 5 5 5 5 5 5 5 85 30 5 5 5 33
100 100 100 100 100 100 100 100 100 100 100 100 100 100 100 100 99 100 100 100 94 100 100 100 100 100 100 100 100 81 19 20 5 5 5 5 5 5 42 57 6 5 5 34
100 100 100 100 100 100 100 100 100 100 100 100 100 100 100 100 100 100 100 100 100 100 100 100 100 100 100 100 100 61 5 5 5 8 15 31 7 5 38 96 88 7 5 8

GFSNW_prec_cloud_147.txt.gz
Cloud_Cover
100 100 100 100 100 100 100 100 100 73 14 100 100 100 15 5 5 5 0 0 0 0 3 5 92 25 0 35 100 100 76 87 52 100 100 100 100 100 100 100 100 100 100 100
100 100 100 100 100 100 100 100 98 96 95 100 100 86 32 7 0 0 0 0 0 0 0 2 3 52 4 6 55 75 100 100 84 100 100 100 100 100 100 100 100 100 100 100
100 100 87 99 100 100 100 100 94 100 100 89 24 76 28 92 39 22 6 1 1 0 4 2 5 1 5 28 87 100 100 100 100 78 100 100 100 100 100 100 100 100 100 100
100 100 100 100 100 99 100 100 80 30 96 100 84 66 11 50 99 84 6 5 5 0 4 36 14 28 100 100 100 100 100 99 100 100 100 100 100 100 100 100 100 100 100 100
100 100 100 100 100 100 100 100 99 100 100 97 100 97 100 98 100 100 68 48 5 5 5 5 5 59 100 100 100 100 100 100 100 100 100 100 100 100 100 100 100 100 100 100
100 100 100 100 100 100 100 100 100 100 95 100 100 100 100 18 100 98 5 15 5 5 0 5 6 80 95 99 100 100 100 100 100 100 100 100 100 100 100 100 100 100 100 100
100 100 100 100 100 100 88 100 100 100 80 93 97 100 100 100 71 100 97 27 8 0 23 100 98 96 100 92 98 100 100 100 100 100 100 100 100 100 100 100 100 100 100 100
100 100 100 100 100 100 99 100 100 100 66 96 100 100 100 99 98 100 99 92 55 67 97 98 100 96 59 37 100 100 100 100 100 100 100 100 100 100 100 100 100 96 98 100
100 100 100 100 100 100 100 100 100 100 100 100 95 100 100 100 96 100 99 12 63 94 100 100 100 100 100 88 100 100 100 100 100 100 100 100 100 100 100 100 96 100 100 100
100 100 100 91 99 100 100 100 100 100 100 91 100 100 100 77 88 46 98 98 100 99 99 99 100 100 100 100 100 100 100 100 100 100 100 100 100 100 100 97 100 100 100 100
100 100 96 100 100 100 100 100 100 100 100 100 100 100 99 100 100 100 100 100 100 100 100 100 100 100 100 100 100 100 100 100 100 100 100 100 100 100 100 100 100 100 100 100
100 100 100 100 100 100 100 100 100 100 100 100 100 100 100 100 100 100 100 100 100 100 100 100 100 100 100 100 100 100 85 100 100 100 100 100 100 100 99 100 100 100 100 8
100 100 100 100 100 100 100 100 100 100 100 100 100 100 100 100 100 100 100 100 100 100 100 100 100 100 99 100 100 100 100 100 100 100 100 100 100 100 100 100 100 78 5 5
100 100 100 100 100 100 100 100 100 100 100 100 100 100 100 100 100 100 100 100 100 100 100 100 100 100 100 100 100 100 100 100 100 100 100 100 100 100 100 100 57 13 5 5
100 100 100 94 100 100 100 100 100 100 100 100 100 100 100 100 100 100 100 100 100 100 100 86 100 100 100 100 99 99 100 100 100 100 100 100 100 100 100 72 24 5 5 5
100 100 100 100 100 100 100 100 100 100 100 100 100 100 100 100 100 100 100 100 100 100 100 100 100 100 100 100 100 100 100 100 100 99 98 100 100 100 95 79 8 5 5 5
100 100 100 100 100 100 100 100 100 100 100 100 100 100 100 100 100 100 100 100 100 100 100 98 100 94 100 100 100 100 85 100 96 75 66 100 100 100 96 7 5 5 5 0
100 100 100 100 100 100 100 100 100 100 100 100 100 100 98 97 100 100 100 100 100 100 100 100 100 100 100 100 100 100 57 58 100 100 100 100 100 90 18 33 42 5 5 0
100 100 100 100 100 100 100 100 100 100 100 100 100 100 100 100 100 100 100 100 100 100 100 77 51 99 89 100 100 100 81 56 100 100 100 100 53 44 88 100 6 5 5 5
100 100 100 100 100 100 100 100 100 100 100 100 100 100 100 84 100 100 96 78 100 84 52 52 67 52 96 99 75 44 59 100 98 100 100 100 100 100 100 100 5 5 1 0
100 100 100 100 100 100 100 100 100 100 100 100 100 98 100 100 100 88 100 91 76 24 40 14 79 98 91 62 52 80 91 87 84 91 100 100 100 100 100 63 5 5 3 0
100 100 100 100 100 100 100 100 100 100 100 100 100 100 100 97 97 100 79 68 64 77 53 82 100 84 67 56 87 88 99 98 78 99 100 100 100 100 95 9 5 5 4 3
100 100 100 100 98 83 100 98 100 100 100 100 100 100 100 100 84 100 100 100 62 6 77 87 94 52 97 49 58 58 87 100 100 100 100 100 100 100 50 27 6 5 5 5
100 100 100 69 77 100 100 100 100 100 96 100 100 100 100 100 100 100 99 100 70 76 100 100 55 48 97 98 100 82 99 91 100 100 100 100 100 98 40 49 5 5 5 5
100 100 100 100 100 100 100 100 100 96 100 100 97 44 58 64 86 100 100 100 81 100 98 81 58 63 55 78 98 100 99 100 100 100 100 100 100 68 35 60 20 5 5 5
100 100 100 100 100 100 100 100 100 100 95 97 86 73 93 100 100 94 100 100 100 97 98 99 51 100 99 100 100 99 100 100 100 100 100 100 100 75 58 61 58 5 5 5
95 100 100 100 100 100 100 100 100 100 99 100 74 100 100 99 97 98 99 100 100 100 100 100 74 97 100 100 100 100 100 100 100 100 100 100 100 100 100 100 100 88 25 5

GFSNW_prec_cloud_153.txt.gz
Cloud_Cover
100 100 100 100 100 100 100 100 100 100 100 100 90 100 100 100 100 100 100 100 100 90 65 6 6 46 5 5 5 8 33 89 76 100 100 100 100 100 100 100 100 100 100 13
100 100 100 100 100 100 100 100 94 100 98 100 100 100 97 100 100 100 100 100 100 84 88 72 0 4 81 28 4 0 8 63 10 5 34 91 98 72 93 82 100 86 99 18
100 100 100 100 100 100 100 100 100 100 100 100 100 100 100 100 100 100 100 100 100 97 41 3 0 24 21 6 0 0 70 20 19 11 12 8 100 100 100 100 100 88 92 100
100 100 100 100 100 51 78 100 100 100 100 100 100 100 100 100 100 100 100 100 99 6 5 76 5 5 3 0 0 4 4 2 0 1 5 91 58 14 100 100 100 100 100 100
100 100 100 100 100 98 94 100 99 50 83 84 100 100 100 100 94 66 6 5 5 92 50 5 46 88 75 4 0 100 100 25 65 5 92 100 100 38 100 94 100 100 100 100
100 100 100 100 100 100 100 100 73 80 46 60 100 100 100 42 5 9 5 46 100 97 69 99 85 100 5 6 30 75 97 100 95 75 100 100 99 83 100 100 100 100 96 100
100 100 100 100 100 100 100 100 100 94 79 100 99 100 100 95 21 93 50 99 100 69 99 97 79 74 30 42 75 96 32 96 100 88 100 97 95 100 100 100 89 100 100 100
100 100 100 100 100 100 66 100 97 100 100 86 66 97 100 100 100 100 98 99 31 100 100 100 66 13 5 5 5 3 6 83 100 94 96 12 70 100 100 100 57 52 95 100
100 100 100 100 100 100 89 96 100 100 100 95 100 100 100 100 99 83 100 99 100 100 100 100 100 30 37 66 59 10 51 98 100 99 100 100 100 100 100 83 97 100 96 99
100 100 100 100 100 95 100 100 100 100 100 100 100 100 100 100 94 100 99 100 100 100 100 100 100 100 83 53 38 93 100 100 96 100 100 74 100 100 100 100 100 100 100 100
100 100 100 100 100 100 100 100 99 96 100 100 100 100 100 100 97 100 100 100 100 100 100 88 97 6 6 9 24 88 98 100 100 100 100 100 100 100 100 100 100 100 100 100
100 100 100 100 100 100 100 100 99 97 100 100 100 100 100 99 100 100 100 100 94 96 37 93 70 14 79 79 98 100 100 100 90 91 100 100 100 100 100 100 100 100 100 100
100 100 100 100 100 100 100 100 100 100 100 100 100 99 64 100 100 100 100 100 100 100 100 96 96 100 99 97 100 84 99 60 100 93 100 100 100 94 97 100 100 100 100 100
100 100 100 100 100 100 100 100 100 100 100 100 100 97 100 100 99 100 100 100 100 100 100 100 100 100 100 86 87 39 44 90 100 100 99 86 93 82 100 100 100 100 100 100
100 100 100 100 100 100 100 100 100 100 100 100 98 100 100 84 99 100 100 100 100 100 100 100 100 100 100 100 80 99 53 81 62 68 97 100 90 100 100 100 100 100 100 100
100 100 100 100 100 100 100 100 100 100 100 100 100 100 100 100 100 100 100 100 100 100 100 100 100 100 100 100 70 100 30 24 100 100 100 79 54 97 100 100 100 100 100 100
100 100 100 100 100 100 100 100 100 100 100 100 100 100 100 100 100 100 100 100 100 100 100 100 100 100 100 99 98 96 60 100 100 100 100 100 91 100 100 100 100 97 100 100
100 100 100 100 100 100 100 100 100 100 100 100 100 100 100 100 100 100 100 100 100 100 100 100 100 100 100 100 100 100 100 100 100 100 100 100 100 100 100 100 100 100 100 67
100 100 100 100 100 100 100 100 100 100 100 100 100 100 100 100 100 100 100 100 100 100 100 100 100 100 100 100 100 98 100 100 100 100 100 100 100 100 100 100 100 96 84 72
100 100 100 100 100 100 100 100 100 100 100 100 100 100 100 100 100 100 100 100 100 100 100 100 100 100 100 100 72 100 100 100 100 100 100 100 100 100 100 82 100 82 59 72
100 100 100 100 100 100 100 100 100 100 100 100 100 100 100 100 100 100 100 100 100 100 100 100 100 100 96 91 89 100 100 100 100 100 100 100 100 100 100 100 98 44 44 100
100 100 100 100 100 100 100 100 100 100 100 100 100 100 100 100 100 100 100 100 100 100 100 100 100 95 54 94 99 99 99 94 80 85 100 100 100 86 86 70 64 47 85 100
100 100 100 100 100 100 100 100 100 100 100 100 100 100 100 100 94 100 100 100 100 100 100 100 100 87 78 90 100 100 100 100 100 89 98 99 70 58 81 99 78 67 90 99
100 100 100 100 100 100 100 100 100 100 100 100 100 100 100 100 100 100 100 100 100 100 100 100 96 100 98 96 72 95 100 100 100 100 100 85 67 80 99 100 100 100 100 100
100 99 95 100 100 100 100 100 100 100 100 100 100 100 100 100 100 100 100 100 100 100 100 100 100 100 100 91 70 27 10 81 100 100 100 98 70 75 100 100 100 100 100 100
100 86 98 100 100 100 100 100 100 100 100 99 87 100 100 100 100 100 100 100 100 100 100 100 100 100 100 100 98 72 65 69 79 100 100 97 100 98 91 100 100 100 94 78
100 100 100 99 100 100 100 100 100 100 100 100 75 97 100 100 100 100 100 100 100 100 100 100 100 100 100 99 91 94 100 100 100 93 87 77 96 100 100 100 100 100 89 100

GFSNW_prec_cloud_159.txt.gz
Cloud_Cover
100 100 100 100 100 100 100 100 100 100 100 100 100 100 100 100 100 100 100 100 100 100 100 100 100 100 100 100 88 100 23 4 4 5 5 5 5 4 6 42 100 100 100 15
100 100 100 100 100 100 100 100 100 100 100 100 100 100 100 100 100 100 100 100 100 100 100 100 100 100 100 100 100 99 97 3 3 5 5 23 41 55 100 100 99 7 21 5
100 100 100 100 100 100 100 100 100 100 100 100 100 100 100 100 100 100 100 100 100 100 100 100 100 100 99 99 89 9 10 5 18 0 55 100 95 90 84 100 100 44 7 16
100 100 100 100 100 100 100 100 100 100 100 95 97 100 100 100 100 100 100 100 100 100 68 93 96 63 5 6 51 100 100 88 79 22 58 100 100 100 59 100 100 90 1 83
100 100 100 100 100 98 100 99 100 100 100 100 100 100 97 100 100 100 100 99 100 100 79 100 63 97 100 100 84 100 100 100 100 100 100 100 73 71 98 100 100 100 100 78
100 100 100 100 88 90 98 100 100 100 100 100 100 100 100 100 100 98 100 100 100 95 100 90 100 100 100 100 100 100 100 100 97 12 100 100 49 4 24 2 5 96 100 99
100 100 100 100 94 100 100 100 100 100 100 100 100 100 100 100 100 100 100 100 100 100 67 100 100 100 100 100 100 100 100 100 100 38 100 86 14 84 47 3 3 98 67 99
100 100 100 100 100 100 100 100 100 100 100 100 100 100 100 100 98 100 100 100 100 100 100 100 100 100 97 78 84 100 100 100 100 100 99 60 100 100 100 87 6 26 94 100
100 100 100 100 100 100 100 100 100 100 100 100 100 100 100 100 100 100 100 100 100 100 100 100 100 100 100 100 100 98 100 100 100 100 100 100 81 89 3 2 5 13 31 78
100 100 100 100 76 68 100 100 100 100 100 100 100 100 100 100 100 100 100 100 77 99 100 100 100 100 100 99 93 48 70 89 98 91 100 72 76 100 76 44 47 63 90 100
100 100 100 100 100 100 100 100 100 100 100 100 100 100 100 100 100 100 100 96 100 100 100 100 100 100 100 87 100 100 5 88 96 89 100 99 100 42 82 94 100 100 100 100
100 100 100 100 100 100 100 100 100 100 100 100 100 100 100 100 100 100 100 100 100 100 100 100 100 100 64 92 100 92 75 79 90 100 92 99 89 94 100 100 100 100 100 100
100 100 100 97 100 100 100 100 100 100 100 100 100 100 100 100 100 100 100 100 100 100 100 100 90 95 100 99 84 95 98 82 58 32 26 100 100 100 100 100 100 100 100 100
100 100 91 100 100 100 100 100 100 100 100 100 100 100 100 100 100 53 100 100 100 100 92 97 100 88 76 89 100 100 98 65 94 78 99 100 100 100 100 100 100 100 100 100
100 96 100 100 100 100 100 100 100 100 100 100 100 100 100 70 97 100 100 100 100 100 100 100 100 100 100 100 100 100 100 100 82 96 100 94 99 100 100 100 100 100 100 100
100 100 100 100 100 100 100 100 100 100 100 100 100 100 100 100 100 100 100 100 100 100 100 100 100 100 100 100 100 100 100 88 100 92 93 54 100 100 100 100 94 100 100 100
100 100 100 100 100 100 100 100 100 100 100 100 100 99 100 100 100 100 100 96 100 100 100 100 100 100 100 100 100 100 99 97 100 62 9 5 59 100 98 98 100 93 99 100
57 69 100 100 100 100 100 100 100 100 100 100 99 100 100 100 100 100 100 100 100 100 100 100 100 100 100 100 100 100 100 88 98 53 37 79 64 99 92 100 100 100 97 100
90 100 100 100 100 100 100 100 100 100 100 100 100 100 100 100 100 100 100 100 100 100 100 100 100 100 100 100 100 100 97 92 74 49 40 100 100 100 100 100 100 91 100 100
100 95 98 100 100 100 100 100 100 100 100 100 100 100 100 100 100 100 100 100 100 100 100 100 100 100 100 100 100 100 100 100 94 93 80 84 100 100 100 100 93 100 100 100
94 100 100 100 100 100 100 100 100 100 100 100 100 100 100 100 100 100 100 100 100 100 100 100 100 100 100 100 100 100 99 100 100 100 100 99 100 95 96 100 98 100 100 100
89 98 100 100 100 100 100 100 100 100 100 100 100 100 100 100 100 100 100 100 100 100 100 100 100 100 100 100 100 95 99 100 100 100 100 100 100 100 100 100 100 100 100 100
100 100 100 100 100 100 100 100 100 100 100 100 100 100 100 100 100 100 100 100 100 100 100 100 100 100 100 100 100 100 100 100 100 96 100 100 100 100 100 100 100 98 99 100
100 100 100 100 100 100 99 100 100 100 100 100 100 100 100 100 100 100 100 93 100 100 100 100 100 100 100 100 100 100 100 100 93 96 100 100 100 100 100 100 100 100 90 100
100 100 100 100 100 100 100 100 100 100 100 100 100 100 100 100 100 100 76 99 100 100 100 100 100 100 100 100 100 100 100 100 100 100 98 99 93 100 100 100 100 98 98 100
100 100 100 100 100 100 100 100 100 100 100 100 100 100 100 100 100 100 95 78 100 100 100 100 100 100 100 100 100 100 100 100 100 100 100 96 95 100 100 100 94 100 100 100
100 100 100 100 100 100 100 100 100 100 100 100 100 100 100 100 100 72 98 98 100 100 100 100 100 100 100 100 100 100 100 100 100 100 100 100 99 100 100 100 100 100 100 97

GFSNW_prec_cloud_162.txt.gz
Cloud_Cover
87 100 100 100 100 100 85 100 84 100 100 100 100 100 100 100 100 100 100 100 100 100 100 100 100 100 100 100 100 100 100 100 100 100 100 100 100 100 100 98 8 55 87 19
5 100 100 100 100 100 91 100 81 63 100 98 100 100 100 100 100 100 100 100 100 100 100 100 100 100 100 100 100 100 100 100 100 100 100 100 100 82 67 76 98 51 40 25
4 100 100 100 100 100 100 98 97 98 98 98 73 93 100 100 100 100 100 100 100 100 100 100 100 100 100 94 100 100 100 100 100 28 10 20 8 1 2 86 80 71 55 93
2 90 100 100 100 100 100 100 23 7 93 56 99 100 100 100 100 100 100 100 100 100 100 100 100 100 100 100 100 100 100 85 72 19 5 5 2 4 38 100 100 100 100 69
0 90 100 100 100 100 100 100 92 42 58 100 100 100 100 100 100 100 100 100 100 100 100 100 100 100 100 100 100 100 100 90 66 5 48 26 5 80 100 100 100 29 5 0
0 24 100 100 100 100 100 100 100 91 100 100 100 100 100 100 100 100 100 100 100 100 100 81 100 100 100 100 100 88 72 5 99 5 88 96 25 100 100 25 2 24 59 3
0 5 100 100 100 100 100 100 100 99 95 97 100 100 100 100 100 100 100 100 100 100 90 100 100 100 100 100 65 51 8 5 54 43 100 79 96 13 7 13 41 32 3 0
1 39 100 100 100 100 100 100 100 91 61 100 100 100 100 100 100 100 100 100 100 95 25 100 100 100 100 100 86 94 88 100 100 94 100 11 92 2 85 78 37 100 100 54
4 68 100 100 100 100 100 100 100 20 99 100 100 100 100 100 100 100 100 100 100 100 100 100 100 100 100 99 100 100 100 85 100 98 100 53 4 90 100 100 12 36 5 5
14 88 100 100 100 100 100 100 100 77 91 100 100 100 100 100 100 100 100 100 100 100 100 100 100 100 100 99 79 100 93 100 67 61 100 13 24 43 100 81 42 9 5 28
18 100 100 100 100 100 100 100 96 100 100 100 100 100 100 100 100 100 100 100 69 100 100 100 100 100 99 100 99 100 99 100 32 5 85 73 5 32 98 84 24 43 99 100
100 100 100 100 100 100 100 100 88 100 100 100 100 100 100 100 100 100 100 100 100 100 100 100 100 100 100 100 100 100 99 20 16 7 89 74 100 99 100 66 100 100 100 100
100 100 100 100 100 100 100 100 97 100 100 100 100 100 100 100 93 100 100 100 100 100 100 100 100 100 100 97 88 66 53 100 93 100 94 75 99 100 97 100 100 100 92 98
100 100 100 100 100 100 99 48 97 100 100 100 100 100 100 100 100 100 100 100 100 100 100 100 100 100 75 49 90 80 50 99 100 79 100 93 99 100 100 100 100 97 54 97
100 100 100 100 100 100 53 91 100 100 100 100 100 100 100 100 100 100 100 100 100 100 100 100 98 93 68 50 99 100 98 100 84 100 100 83 100 100 100 100 100 100 100 97
100 100 100 100 100 100 100 100 100 100 100 100 100 100 100 100 100 100 100 100 100 100 72 100 100 100 93 61 82 100 100 82 100 100 97 100 100 21 100 100 100 100 75 50
100 100 100 100 100 100 100 100 100 100 100 100 100 100 100 100 100 97 97 97 100 98 100 100 100 100 100 100 100 100 77 100 100 100 16 67 94 72 100 100 100 72 58 71
100 100 100 100 100 100 100 100 100 100 100 100 100 100 66 100 100 100 100 100 100 100 100 100 100 100 100 100 100 100 100 100 100 100 36 16 16 34 5 72 95 61 95 80
100 100 100 100 100 100 100 100 100 100 100 100 100 100 100 100 100 100 100 100 100 100 100 100 100 100 98 100 100 100 100 100 100 100 85 9 5 78 73 82 100 100 84 94
100 100 99 100 100 100 100 100 100 100 100 100 100 100 100 100 100 100 100 100 100 100 90 100 100 100 100 100 100 100 100 100 100 100 96 67 67 98 100 100 100 100 66 28
37 94 100 100 100 90 100 100 100 100 100 100 100 94 100 100 100 100 100 100 100 100 100 100 100 100 100 100 100 100 100 100 100 100 100 100 100 99 89 96 100 83 96 98
100 100 100 100 100 100 100 99 95 100 100 100 100 100 100 100 100 100 100 100 100 100 100 100 100 100 100 100 100 100 100 100 100 100 100 100 99 100 100 100 100 94 74 70
85 62 99 100 95 100 100 100 100 100 100 100 100 100 100 100 100 100 100 100 100 100 100 100 100 100 100 100 100 100 100 100 100 100 100 98 100 100 100 100 100 100 100 100
87 100 99 69 100 98 100 100 100 100 100 100 100 100 100 100 100 100 100 100 100 97 100 100 100 100 100 100 100 100 100 100 100 97 100 100 100 100 100 100 100 100 100 87
100 100 99 82 61 100 100 100 100 100 100 100 100 100 100 100 100 100 100 100 99 100 100 100 100 100 100 100 100 100 100 100 100 100 100 100 90 91 100 100 100 100 100 100
100 100 100 100 100 100 100 100 100 100 100 100 100 100 100 100 100 100 100 93 100 100 100 100 100 100 100 100 100 100 100 100 100 100 100 100 100 100 100 100 100 100 100 100
100 100 100 100 100 100 100 100 100 100 100 100 100 100 100 100 100 100 100 100 100 100 100 100 100 100 100 100 100 100 100 100 100 100 100 100 100 100 100 100 100 99 100 100

GFSNW_prec_cloud_165.txt.gz
Cloud_Cover
0 0 46 54 100 100 100 96 82 5 69 99 12 5 0 43 100 100 100 100 100 100 100 100 100 100 100 100 100 100 100 100 100 100 100 100 100 100 73 36 80 86 94 39
0 0 3 70 90 100 100 100 80 53 13 27 20 7 5 37 100 94 100 100 100 100 100 100 100 100 100 100 100 100 100 100 100 100 100 100 100 100 100 99 92 100 59 89
5 3 3 8 93 100 100 100 100 100 100 5 5 5 57 100 100 49 59 100 100 100 100 100 100 100 100 100 100 100 100 100 100 100 100 90 84 100 100 100 100 88 47 28
4 0 0 5 100 100 100 100 100 100 98 99 98 99 98 100 100 100 100 100 100 100 100 100 100 100 100 100 100 100 100 100 100 100 100 100 100 100 100 100 86 21 2 0
5 0 5 5 94 100 100 100 100 100 100 100 100 26 16 100 100 100 100 100 100 100 100 100 100 100 100 100 100 100 100 100 100 100 100 100 100 100 100 100 12 5 73 11
5 0 4 5 84 100 100 100 100 100 100 100 100 25 90 100 100 100 100 100 100 100 100 83 97 100 100 100 100 100 100 100 100 100 100 84 34 91 100 12 5 5 4 0
3 0 0 3 66 100 93 100 100 100 100 100 100 100 100 100 100 100 100 100 100 100 93 100 100 100 100 58 99 100 100 100 13 75 52 44 99 100 78 3 30 5 1 17
0 1 3 3 70 100 100 100 100 100 100 100 100 100 94 100 100 100 100 100 100 100 99 100 100 100 100 100 100 100 92 96 100 53 88 10 6 18 3 5 3 4 5 11
4 0 2 0 5 100 100 100 100 100 100 100 100 28 52 98 100 100 100 100 100 100 100 100 99 91 100 100 98 91 100 100 55 100 98 45 62 9 99 39 5 4 98 100
5 5 0 0 51 100 100 100 100 100 100 100 83 64 9 83 100 100 100 100 100 100 100 100 100 100 100 96 97 100 100 100 100 95 100 26 98 5 4 4 24 65 65 66
0 2 0 0 31 100 100 100 100 100 100 100 99 96 65 57 100 100 100 100 100 100 100 100 100 100 100 95 100 100 100 100 100 100 100 67 8 3 2 4 100 100 21 73
6 4 0 0 96 100 100 100 100 100 100 100 99 97 93 100 100 100 100 100 100 100 100 100 100 97 100 100 100 100 100 100 98 63 5 0 96 100 100 99 100 60 99 87
98 8 7 96 100 100 100 100 100 100 100 100 99 98 86 65 96 100 100 100 100 100 100 100 100 100 100 100 100 100 100 100 96 93 9 97 100 100 100 100 52 100 100 93
79 88 69 100 100 100 100 100 100 100 100 41 100 51 66 100 50 99 100 100 100 100 100 100 100 100 100 100 100 100 100 96 100 97 86 100 95 74 97 89 99 100 100 100
100 100 100 100 100 100 100 100 100 100 89 56 100 100 98 90 100 100 100 100 100 100 100 100 100 100 100 100 66 100 100 97 36 100 100 98 78 88 84 100 100 100 100 100
100 100 100 100 100 100 100 100 100 93 100 92 100 100 100 96 100 100 100 100 100 100 100 100 100 100 100 100 24 89 92 24 8 35 97 44 8 75 100 100 100 100 100 100
100 100 100 100 100 100 100 100 100 93 100 100 74 100 100 100 100 100 100 100 100 98 100 100 100 100 98 100 96 100 38 36 98 40 100 100 73 44 100 100 100 100 100 100
100 100 100 100 100 100 100 98 79 67 100 100 90 100 71 100 100 100 100 100 99 100 100 100 100 83 100 100 100 73 39 93 97 87 86 98 99 100 85 21 100 100 76 79
100 100 100 100 100 100 100 100 100 100 57 73 75 100 100 94 100 100 100 100 100 100 100 100 100 100 100 53 64 95 100 100 100 100 100 100 100 68 11 8 92 100 67 65
100 100 100 100 100 100 100 98 100 99 100 100 100 99 100 67 100 100 100 100 100 100 100 100 100 99 62 91 99 100 100 100 100 100 100 100 100 81 95 73 95 100 100 100
100 100 100 100 100 100 78 100 100 100 100 100 100 91 100 100 100 100 100 100 100 100 100 100 100 100 98 94 94 100 100 100 100 100 100 100 100 100 100 100 100 100 100 100
100 100 100 100 100 96 100 100 95 100 100 100 100 100 97 100 100 100 100 100 100 100 100 100 98 100 100 99 100 100 100 100 100 100 100 100 100 100 100 100 100 100 96 100
21 46 95 84 100 99 81 100 100 100 100 100 100 100 100 100 100 100 100 100 100 100 100 100 100 100 100 100 100 100 100 100 100 100 100 100 100 100 100 100 100 100 100 100
38 86 96 69 84 56 88 97 100 100 100 100 100 100 100 100 100 100 100 100 100 100 100 100 100 100 100 100 100 100 100 100 100 100 100 100 100 100 100 100 100 100 100 100
78 56 70 42 24 58 86 100 100 100 100 100 100 100 100 100 100 100 100 100 100 100 100 100 100 100 100 100 100 100 100 100 100 100 100 100 100 100 100 100 100 100 100 100
72 37 24 42 51 72 100 100 100 100 100 100 100 100 100 100 100 100 100 100 100 100 100 100 100 100 100 100 100 100 100 100 100 100 100 100 100 100 100 100 100 100 100 100
75 80 100 100 96 100 100 100 100 100 100 100 100 100 100 100 100 100 100 100 100 100 100 100 100 100 100 100 100 100 100 100 100 100 100 100 100 100 100 100 100 100 100 100

GFSNW_prec_cloud_168.txt.gz
Cloud_Cover
64 5 20 77 100 100 100 100 92 23 5 94 75 62 79 47 5 26 5 5 100 100 100 98 100 100 100 100 100 100 100 100 77 100 100 100 93 100 100 100 100 100 100 97
100 100 100 100 100 100 100 100 61 92 100 88 100 5 3 38 13 96 5 6 100 100 98 100 100 100 100 98 100 100 100 99 100 98 100 100 100 100 100 100 100 100 100 100
100 100 100 100 100 100 96 100 100 79 100 10 14 5 3 4 2 96 59 5 38 100 100 100 67 100 100 100 100 100 100 86 100 94 100 100 100 100 100 100 100 100 94 68
100 100 100 100 100 100 100 100 100 100 96 100 100 100 100 100 98 100 100 54 25 100 100 100 69 98 100 100 100 97 100 100 100 100 100 100 100 100 100 100 100 100 91 86
100 100 100 100 100 100 100 100 93 100 100 100 100 100 78 100 100 100 100 100 100 100 98 84 100 100 100 100 100 100 100 100 100 100 100 100 100 100 100 100 100 100 99 100
100 100 100 100 100 100 100 100 24 100 100 100 100 100 100 100 100 83 100 100 100 100 100 100 100 100 100 100 100 100 100 100 100 100 100 100 100 100 100 100 99 76 71 85
100 100 100 100 63 7 95 100 100 100 100 100 100 100 100 100 100 65 100 100 100 100 100 100 100 100 100 100 100 100 100 100 100 100 100 99 100 100 100 79 60 83 94 10
100 100 94 21 6 5 100 100 100 100 100 100 100 100 100 100 100 98 100 100 100 100 100 100 100 100 100 100 100 100 100 100 100 100 100 99 100 100 96 83 64 77 5 1
100 86 86 6 5 0 87 100 100 100 100 100 100 100 100 100 100 96 100 100 100 100 100 100 100 100 100 100 100 100 100 100 100 100 100 100 100 99 13 5 3 3 1 4
36 5 5 0 0 0 18 100 100 100 100 100 100 100 100 100 59 34 100 100 100 100 100 100 100 100 100 100 100 100 100 100 100 100 100 95 99 5 3 5 4 5 5 10
1 0 0 0 1 0 32 68 100 100 100 100 100 100 100 100 97 92 100 100 100 100 100 100 100 100 100 100 100 100 100 100 100 98 100 77 81 20 30 68 5 11 82 48
0 0 0 0 3 0 22 44 100 100 100 100 100 100 100 90 98 86 100 88 100 100 100 100 100 100 100 100 100 100 100 100 81 100 100 100 82 5 39 90 78 100 100 100
2 5 4 1 1 0 24 100 100 100 100 100 100 100 100 100 100 82 71 98 92 100 100 100 100 100 100 100 100 100 100 100 100 100 100 75 39 81 100 100 100 81 74 10
99 100 100 5 6 1 8 100 100 100 100 100 100 100 100 100 100 100 99 99 100 100 98 100 97 100 100 100 100 100 100 100 100 100 100 86 100 100 100 100 72 82 56 90
100 100 78 5 5 30 86 100 100 100 100 100 100 100 40 22 95 100 96 85 96 100 82 76 100 100 100 100 100 100 100 100 98 100 40 36 100 73 46 37 25 25 100 100
100 52 35 36 9 72 100 100 100 100 100 100 100 98 46 56 100 40 80 100 81 48 84 97 100 100 100 92 96 100 100 80 5 9 100 100 100 98 18 11 96 84 100 100
100 100 89 95 100 100 100 100 100 100 100 100 53 66 14 10 13 78 100 100 100 52 35 100 100 100 100 84 100 100 63 27 5 40 98 100 98 97 73 78 48 36 100 100
100 100 100 100 100 100 100 100 100 100 98 21 37 26 70 40 54 99 100 100 100 100 100 100 100 100 99 100 100 100 25 14 70 100 100 100 96 83 66 63 18 13 91 100
100 100 100 100 100 100 100 100 100 100 44 49 31 86 35 11 92 100 100 100 100 100 100 100 100 100 93 100 100 86 99 100 77 70 100 100 100 100 88 100 98 27 12 100
100 100 100 100 100 100 100 100 100 100 100 98 100 68 21 60 100 100 100 100 100 100 100 100 100 100 96 51 100 100 100 54 82 100 100 100 96 100 100 100 100 76 82 95
100 100 100 100 100 100 100 96 83 99 98 97 88 7 65 70 100 100 100 100 100 100 100 99 100 100 100 100 100 99 100 84 91 100 100 100 100 100 100 100 100 100 100 100
100 100 100 100 100 100 100 100 100 92 49 42 98 96 69 100 100 100 100 100 100 100 100 100 95 100 100 100 100 100 92 86 100 100 100 100 100 100 100 100 100 100 100 100
100 100 100 100 100 100 99 99 92 85 50 100 97 99 100 100 100 100 100 100 100 100 100 100 100 100 100 92 100 91 100 100 100 100 100 100 100 100 100 100 100 100 100 100
82 88 99 90 97 90 76 12 6 35 100 100 100 100 100 100 100 100 100 100 100 74 100 99 98 100 100 100 100 100 100 100 100 100 100 100 100 100 100 100 100 100 100 100
46 51 44 88 29 68 95 100 52 77 100 100 100 100 100 100 100 100 100 100 82 99 100 100 100 100 100 100 100 100 100 100 100 100 100 100 100 100 100 100 100 100 100 100
5 15 23 44 30 70 100 91 53 76 100 100 100 100 100 100 100 100 79 81 100 100 100 100 100 100 100 100 100 100 100 100 100 100 100 100 100 100 100 100 100 100 100 100
49 52 68 83 79 98 99 99 100 100 100 100 100 100 100 100 100 90 100 100 100 100 100 100 100 100 100 100 100 100 100 100 100 100 100 100 100 100 100 100 100 100 100 100